Regional Weather Roundup
Issued by NWS

Home | Current Version | Previous Version | Text Only | Print | Product List | Glossary On
Versions: 1 2 3 4 5 6 7 8 9 10 11 12 13 14 15 16 17 18 19 20 21 22 23 24 25 26 27 28 29 30 31 32 33 34 35 36 37 38 39 40 41 42 43 44 45 46 47 48 49 50
000
ASUS44 KFWD 260915
RWRTX
NORTH TEXAS HOURLY WEATHER ROUNDUP
NATIONAL WEATHER SERVICE FORT WORTH TX
400 AM CDT SUN APR 26 2015

NOTE: "FAIR" INDICATES FEW OR NO CLOUDS BELOW 12,000 FEET WITH NO
SIGNIFICANT WEATHER AND/OR OBSTRUCTIONS TO VISIBILITY.

TXZ118-119-261000-
DALLAS/FORT WORTH METROPLEX

CITY           SKY/WX    TMP DP  RH WIND       PRES   REMARKS
DFW AIRPORT    CLEAR     63  52  67 S5        29.64F
DALLAS LOVE    CLEAR     66  51  58 SE3       29.65F
FTW MEACHAM    CLEAR     59  53  80 CALM      29.64F
DAL-EXECUTIVE  CLEAR     69  52  54 S6        29.64F
FTW-ALLIANCE   CLEAR     59  51  75 CALM      29.64F
FTW-NAS-JRB      N/A    N/A N/A N/A MISG        N/A
FTW-SPINKS     CLEAR     64  52  64 CALM      29.67S
ARLINGTON      CLEAR     64  51  62 S7        29.65F
GRAND PRAIRIE  CLEAR     64  53  67 S6        29.66F
ADDISON        CLEAR     64  51  63 S5        29.66F
MESQUITE       CLEAR     59  57  91 S3        29.66S
LANCASTER      CLEAR     62  52  70 S3        29.67S
$$

TXZ091>094-102>105-117-120-121-131>134-261000-
NORTH CENTRAL TEXAS

CITY           SKY/WX    TMP DP  RH WIND       PRES   REMARKS
SHRMAN/DENISON CLEAR     62  55  79 S8        29.65S
GAINESVILLE    CLEAR     60  53  78 CALM      29.67S
BOWIE          CLEAR     55  51  85 CALM      29.65S FOG
BRIDGEPORT     CLEAR     54  53  98 CALM      29.67S
DECATUR        CLEAR     68  46  44 S12       29.65F
DENTON         CLEAR     60  53  77 S3        29.64F
MCKINNEY       CLEAR     57  55  93 CALM      29.65F
GREENVILLE     CLEAR     59  55  88 CALM      29.67S
ROCKWALL       CLEAR     63  55  75 S6        29.65S
TERRELL        CLEAR     64  57  78 S3        29.67S
WAXAHACHIE     FAIR      63  55  77 CALM      29.67F
CLEBURNE       CLEAR     63  55  77 S7        29.68S
GRANBURY         N/A     60  53  76 CALM      29.67S
$$

TXZ083>090-098>101-113>116-127>130-139>142-154-155-261000-
WESTERN NORTH TEXAS

CITY           SKY/WX    TMP DP  RH WIND       PRES   REMARKS
WICHITA FALLS  CLEAR     55  48  77 S10       29.62F
WF-KICKAPOO    CLEAR     57  50  79 S5        29.64S
VERNON         CLEAR     56  45  64 SW9       29.64S
ABILENE        CLEAR     59  39  47 S3        29.69S
ABILENE-DYESS  CLEAR     59  43  56 SW7       29.68S
BRECKENRIDGE   CLEAR     60  46  58 S3        29.66S
GRAHAM         CLEAR     54  49  85 CALM      29.65R
MINERAL WELLS  CLEAR     59  51  75 CALM      29.65S
STEPHENVILLE   CLEAR     60  49  66 CALM      29.71S
COMANCHE       FAIR      62  48  61 S8        29.69S
BROWNWOOD      CLEAR     50  48  93 CALM      29.70S
COLEMAN        CLEAR     57  47  71 CALM      29.71S
BRADY          CLEAR     61  43  51 SW5       29.71F
$$

TXZ143>147-156>162-174-175-261000-
CENTRAL TEXAS

CITY           SKY/WX    TMP DP  RH WIND       PRES   REMARKS
WACO           CLEAR     62  59  90 S5        29.68S
WACO-MCGREGOR  CLEAR     63  55  77 S5        29.69S
HILLSBORO      CLEAR     65  60  81 SE8       29.68S
CORSICANA      CLEAR     67  64  90 S7        29.68F
MEXIA          CLEAR     66  65  99 SE13      29.68S FOG
HEARNE         PTCLDY    68  68  99 SE3       29.70S FOG
CAMERON        CLOUDY    71  69  93 S8        29.70R
TEMPLE         CLOUDY    66  63  88 S10       29.69R
KILLEEN        PTCLDY    66  64  94 SW12      29.69S
KILLEEN-SKYLRK CLEAR     63  55  77 S5        29.68S
FORT HOOD      CLEAR     65  60  83 S6        29.69R
GATESVILLE     CLEAR     63  57  82 CALM      29.71S
HAMILTON       CLEAR     59  51  73 SW8       29.70F
LAMPASAS       CLEAR     60  56  84 CALM      29.70R
$$

TXZ095>097-106>112-122>126-135>138-148>153-164>167-261000-
EAST TEXAS

CITY           SKY/WX    TMP DP  RH WIND       PRES   REMARKS
PARIS          CLEAR     57  52  82 MISG      29.66F
SULPHUR SPRNGS CLEAR     64  55  74 SW6       29.69S
MOUNT PLEASANT CLEAR     60  57  91 CALM      29.69S
GILMER         CLEAR     61  58  88 S3        29.68S
TYLER          CLEAR     64  61  90 S7        29.68F
LONGVIEW       CLEAR     65  60  84 S7        29.68S
MARSHALL       CLEAR     61  58  89 CALM      29.71S
ATHENS         CLEAR     59  59 100 CALM      29.68S
PALESTINE      CLEAR     66  64  92 CALM      29.70F
JACKSONVILLE   CLEAR     68  66  94 S5        29.72S
HENDERSON      CLEAR     60  60 100 CALM      29.71S
NACOGDOCHES    PTCLDY    64  63  94 CALM      29.71S
LUFKIN         FOG       71  68  90 S3        29.71S VSB 1/4
$$

SUPPLEMENTAL OBSERVATIONS (CENTRAL)

CITY           SKY/WX    TMP DP  RH WIND       PRES   REMARKS
LAKE TEXOMA      N/A     66  50  55 S3          N/A
CADDO GRASSLND   N/A     57  54  88 S3          N/A
PAT MAYSE LAKE   N/A     57  55  94 CALM        N/A
GREENVILLE       N/A     64  54  68 S5          N/A
CEDAR HILL       N/A     72  57  60 S7          N/A
ATHENS           N/A     68  64  88 S3          N/A
LAKE LIMESTONE   N/A     66  64  94 SW5         N/A
MCGREGOR         N/A     64  63  94 SW6         N/A
TEMPLE           N/A     70  68  94 S10         N/A
$$

SUPPLEMENTAL OBSERVATIONS (WEST)

CITY           SKY/WX    TMP DP  RH WIND       PRES   REMARKS
MILLERS CREEK    N/A     54  48  82 SW7         N/A
POSSUM KINGDOM   N/A     63  45  51 S7          N/A
LBJ GRASSLAND    N/A     64  46  52 SE5         N/A
GRANBURY         N/A     59  52  77 CALM        N/A
COMANCHE         N/A     63  45  51 S8          N/A
HAMBY            N/A     57  39  51 S7          N/A
IVIE RESERVOIR   N/A     61  41  48 NW1         N/A
COLORADO BEND    N/A     63  54  72 SW5         N/A
$$

SUPPLEMENTAL OBSERVATIONS (EAST)

CITY           SKY/WX    TMP DP  RH WIND       PRES   REMARKS
CLARKSVILLE      N/A     57  55  94 S5          N/A
TEXARKANA        N/A     54  52  94 CALM        N/A
LINDEN           N/A     57  54  88 CALM        N/A
CADDO LAKE       N/A     57  55  94 W1          N/A
GILMER           N/A     59  54  82 SW2         N/A
HENDERSON        N/A     61  57  88 S1          N/A
LUFKIN           N/A     70  68  94 MISG        N/A
N SABINE NF      N/A     66  64  94 MISG        N/A
S SABINE NF      N/A     64  63  94 CALM        N/A
$$

SUPPLEMENTAL OBSERVATIONS ARE A COLLECTION OF AUTOMATED INSTRUMENTS
THAT ARE MAINTAINED BY A VARIETY OF FEDERAL AND STATE AGENCIES.
CERTAIN ELEMENTS...SUCH AS HUMIDITY VALUES AND SUSTAINED WIND
SPEEDS...MAY BE APPROXIMATED.




USA.gov is the U.S. government's official web portal to all federal, state and local government web resources and services.